ARIANE 5 R/B, 43059

Orbit data source: Space-Track

ARIANE 5 R/B, 43059 is space debris originally from a launch on Tue, 12 Dec 2017 UTC launched from the French Guiana (FRGUI). Debris objects in space refer to the collection of defunct objects orbiting the Earth. Examples of debris include non-operational satellites, rocket bodies, and fragments generated from explosions, collisions, or faulty payload assembly.

Loading next visibility...
Identifier
43059, 2017-079E
Orbit
Active
Country
Flag of FRFR
Related business
Manufacturer
ADS/Bremen
Mission
Spacecraft
Bus & Motor
EPS+, AESTUS
Mass
3,300 kg wet, 3,300 kg dry
Launch date (UTC)
2017-12-12 (8 years ago)
Launch vehicle
Unknown
Launch site
French Guiana (FRGUI)
Object type
Payload
Rocket body
Debris
Shape & HBR
Cone + Cyl, 2.7 m
Radar Cross Section
28.860 m², Large (>1 m²)

Expand to show TLE details & history
Last TLE update: 1 day ago

TLE from 1 day ago
0 ARIANE 5 R/B
1 43059U 17079E   25302.88240285  .00000005  00000-0  00000-0 0  9999
2 43059  55.1703 225.0953 0001845 281.6446  78.3581  1.73189297 49865
Epoch: 2025-10-29T21:10Z
TLE epoch observation values (Epoch: 2025-10-29T21:10:39.606Z)
Latitude
-0.00002°
Longitude
-131.02947°
Altitude
22,911.159 km
Speed
3.689 km/s
True Right ascension
15h 00m 20s
True Declination
0° 00' 00"
Sunlit
Object was in daylight at epoch
Visualization orbit readout
Latitude
Unknown
Longitude
Unknown
Altitude
Unknown
Speed
Unknown
Apparent Right ascension
Unknown
Apparent Declination
Unknown
Sunlit
N/A
Visualization observer readout
Local Sidereal Time
22:55:16
Azimuth
Unknown
Elevation
Unknown
Doppler factor
Unknown
Orbital elements
Apogee altitude
22,917.388 km
Perigee altitude
22,906.58 km
Semi-major axis
29,290.121 km
Eccentricity
0.00018
Inclination
55.1703°
RAAN
225.0953°
Arg. of periapsis
281.6446°
True anomaly
78.37881°
Mean anomaly
78.3581°
Eccentric anomaly
78.36845°
Mean motion
0.43297 °/min
Orbital period
831.46 mins
BSTAR
0
Loading maneuver chart data...
Computing Atmospheric mass density...
Loading historical data...
Loading historical data...
Loading historical data...
Loading historical data...
Loading historical data...
Loading historical data...
Loading historical data...
Other satellites on launch #79 in the year 2017 (2017-12-12 UTC)

Documentation

Showing up to 5 results
|